{"data":{"norad_id":66810,"epoch":"2026-05-25T02:27:47.891232Z","epoch_age_seconds":76615,"freshness":"FRESH","line1":"1 66810U 25278V   26145.10263763  .00011910  00000+0  44166-3 0  9996","line2":"2 66810  43.0019  42.9767 0002023 218.3948 141.6760 15.27576981 26898","mean_motion":15.27576981,"eccentricity":0.0002023,"inclination_deg":43.0019,"raan_deg":42.9767,"arg_perigee_deg":218.3948,"mean_anomaly_deg":141.676,"bstar":0.00044166,"rev_number":2689,"period_min":94.266935016089,"perigee_km":481.6701162506,"apogee_km":484.44615580264,"semimajor_km":6861.1951360266,"source":"CELESTRAK","updated_at":"2026-05-25T13:38:21.330787Z"}}